Weather History for KOTH - May, 2013

Change the Weather History Date:

Saturday, May 18, 2013

  Actual Average Record
Temperature  
Mean Temperature 55 °F 53 °F  
Max Temperature 61 °F 59 °F 76 °F (1926)
Min Temperature 48 °F 47 °F 35 °F (1909)
Degree Days  
Heating Degree Days 10 12  
Month to date heating degree days 147 231  
Since 1 July heating degree days 4127 4417  
Cooling Degree Days 0 0  
Month to date cooling degree days 4 0  
Year to date cooling degree days 4 0  
Growing Degree Days 4 (Base 50)    
Moisture  
Dew Point 52 °F    
Average Humidity 93    
Maximum Humidity 100    
Minimum Humidity 72    
Precipitation  
Precipitation 0.05 in 0.10 in 0.82 in (1953)
Month to date precipitation 0.15 2.03  
Year to date precipitation 12.49 32.81  
Sea Level Pressure  
Sea Level Pressure 30.23 in    
Wind  
Wind Speed 8 mph (SSW)    
Max Wind Speed 20 mph    
Max Gust Speed 27 mph    
Visibility 9 miles    
Events      
T = Trace of Precipitation, MM = Missing Value Source: NWS Daily Summary

Daily Weather History Graph

Daily Weather History Graph

Search for Another Location

Airport or City:

Trip Planner

Search our weather history database for the weather conditions in past years. The results will help you decide how hot, cold, wet, or windy it might be!

Date:

Astronomy

May. 18, 2013 Rise Set
Actual Time 5:49 AM PDT 8:38 PM PDT
Civil Twilight 5:15 AM PDT 9:11 PM PDT
Nautical Twilight 4:33 AM PDT 9:54 PM PDT
Astronomical Twilight 3:44 AM PDT 10:43 PM PDT
Moon 1:35 PM PDT (5/18) 1:57 AM PDT (5/18)
Length of Visible Light 15h 55m
Length of Day
14h 49m
First Quarter, 56% of the Moon is Illuminated
May 18
First Quarter
May 24
Full
May 31
Last Quarter
Jun 8
New
Jun 16
First Quarter

Hourly Weather History & Observations

Time (PDT) Temp. Dew Point Humidity Pressure Visibility Wind Dir Wind Speed Gust Speed Precip Events Conditions
12:15 AM 51.8 °F 50.0 °F 94% 30.16 in 10.0 mi SE 5.8 mph - N/A   Scattered Clouds
12:35 AM 50.0 °F 50.0 °F 100% 30.16 in 10.0 mi SSE 5.8 mph - N/A   Partly Cloudy
12:55 AM 50.0 °F 48.2 °F 94% 30.16 in 10.0 mi SSE 5.8 mph - N/A   Clear
1:15 AM 50.0 °F 50.0 °F 100% 30.16 in 10.0 mi SSE 3.5 mph - N/A   Scattered Clouds
1:35 AM 48.2 °F 46.4 °F 93% 30.16 in 10.0 mi SSE 3.5 mph - N/A   Mostly Cloudy
1:55 AM 48.2 °F 48.2 °F 100% 30.16 in 10.0 mi SSE 4.6 mph - N/A   Partly Cloudy
2:15 AM 50.0 °F 50.0 °F 100% 30.16 in 10.0 mi SE 5.8 mph - N/A   Mostly Cloudy
2:35 AM 50.0 °F 50.0 °F 100% 30.16 in 10.0 mi SSE 5.8 mph - N/A   Overcast
2:55 AM 48.2 °F 48.2 °F 100% 30.16 in 10.0 mi SSE 6.9 mph - N/A   Overcast
3:15 AM 50.0 °F 48.2 °F 94% 30.15 in 10.0 mi SSE 5.8 mph - N/A   Overcast
3:35 AM 50.0 °F 48.2 °F 94% 30.15 in 10.0 mi SSE 5.8 mph - N/A   Overcast
3:55 AM 50.0 °F 48.2 °F 94% 30.15 in 10.0 mi SSE 4.6 mph - N/A   Overcast
4:15 AM 50.0 °F 48.2 °F 94% 30.15 in 10.0 mi South 6.9 mph - N/A   Overcast
4:35 AM 50.0 °F 50.0 °F 100% 30.14 in 10.0 mi SSE 6.9 mph - N/A   Overcast
4:55 AM 50.0 °F 50.0 °F 100% 30.14 in 10.0 mi SSE 4.6 mph - N/A   Overcast
5:15 AM 50.0 °F 50.0 °F 100% 30.15 in 10.0 mi South 3.5 mph - 0.01 in   Mostly Cloudy
5:35 AM 50.0 °F 50.0 °F 100% 30.15 in 10.0 mi SSE 3.5 mph - 0.01 in   Overcast
5:55 AM 50.0 °F 50.0 °F 100% 30.15 in 10.0 mi SSE 5.8 mph - 0.01 in   Overcast
6:15 AM 51.8 °F 50.0 °F 94% 30.15 in 10.0 mi SSE 5.8 mph - N/A   Overcast
6:35 AM 51.8 °F 50.0 °F 94% 30.16 in 10.0 mi SSE 5.8 mph - N/A   Overcast
6:55 AM 51.8 °F 50.0 °F 94% 30.16 in 10.0 mi SSE 5.8 mph - N/A   Overcast
7:15 AM 51.8 °F 51.8 °F 100% 30.16 in 10.0 mi SSE 5.8 mph - N/A   Overcast
7:35 AM 51.8 °F 50.0 °F 94% 30.17 in 10.0 mi SSE 5.8 mph - N/A   Overcast
7:55 AM 51.8 °F 51.8 °F 100% 30.17 in 9.0 mi SSW 8.1 mph - N/A   Overcast
8:15 AM 53.6 °F 51.8 °F 94% 30.18 in 10.0 mi South 4.6 mph - N/A   Overcast
8:35 AM 53.6 °F 51.8 °F 94% 30.18 in 10.0 mi SSE 4.6 mph - N/A   Overcast
8:55 AM 53.6 °F 51.8 °F 94% 30.18 in 10.0 mi SSE 5.8 mph - N/A   Overcast
9:15 AM 53.6 °F 51.8 °F 94% 30.18 in 9.0 mi SSE 6.9 mph - N/A   Overcast
9:35 AM 53.6 °F 51.8 °F 94% 30.18 in 10.0 mi SSE 5.8 mph - N/A   Overcast
9:55 AM 53.6 °F 51.8 °F 94% 30.18 in 10.0 mi SSE 4.6 mph - N/A   Overcast
10:15 AM 55.4 °F 51.8 °F 88% 30.18 in 10.0 mi SE 6.9 mph - N/A   Overcast
10:35 AM 53.6 °F 51.8 °F 94% 30.19 in 8.0 mi SE 6.9 mph - N/A   Overcast
10:55 AM 55.4 °F 51.8 °F 88% 30.19 in 10.0 mi SSE 5.8 mph - N/A   Overcast
11:15 AM 53.6 °F 51.8 °F 94% 30.19 in 9.0 mi SSE 4.6 mph - 0.01 in   Overcast
11:35 AM 55.4 °F 51.8 °F 88% 30.20 in 5.0 mi SW 3.5 mph - 0.01 in   Overcast
12:15 PM 55.4 °F 50.0 °F 82% 30.21 in 10.0 mi SW 8.1 mph - N/A   Overcast
12:35 PM 55.4 °F 51.8 °F 88% 30.22 in 10.0 mi SSW 5.8 mph - N/A   Overcast
12:55 PM 57.2 °F 51.8 °F 82% 30.22 in 10.0 mi SSW 13.8 mph - N/A   Overcast
1:15 PM 57.2 °F 51.8 °F 82% 30.22 in 10.0 mi SSW 18.4 mph 24.2 mph N/A   Overcast
1:35 PM 57.2 °F 51.8 °F 82% 30.22 in 10.0 mi SW 15.0 mph 20.7 mph N/A   Overcast
1:55 PM 60.8 °F 51.8 °F 72% 30.23 in 9.0 mi WSW 19.6 mph 26.5 mph N/A   Overcast
2:15 PM 57.2 °F 51.8 °F 82% 30.23 in 10.0 mi WSW 17.3 mph 24.2 mph N/A   Overcast
2:35 PM 59.0 °F 51.8 °F 77% 30.24 in 10.0 mi SW 16.1 mph 25.3 mph N/A   Overcast
3:15 PM 59.0 °F 51.8 °F 77% 30.25 in 10.0 mi SSW 18.4 mph 25.3 mph N/A   Overcast
3:35 PM 60.8 °F 53.6 °F 77% 30.25 in 10.0 mi SW 13.8 mph 21.9 mph N/A   Overcast
3:55 PM 57.2 °F 51.8 °F 82% 30.26 in 10.0 mi WSW 15.0 mph 21.9 mph N/A   Overcast
4:15 PM 55.4 °F 53.6 °F 94% 30.27 in 10.0 mi SW 16.1 mph 20.7 mph N/A   Overcast
4:35 PM 55.4 °F 53.6 °F 94% 30.28 in 8.0 mi SW 15.0 mph 20.7 mph N/A   Overcast
4:55 PM 55.4 °F 53.6 °F 94% 30.28 in 9.0 mi SW 9.2 mph 17.3 mph N/A   Overcast
5:15 PM 55.4 °F 53.6 °F 94% 30.29 in 3.0 mi WSW 11.5 mph - N/A   Overcast
5:35 PM 55.4 °F 53.6 °F 94% 30.29 in 2.0 mi WSW 9.2 mph - N/A   Overcast
5:55 PM 53.6 °F 51.8 °F 94% 30.30 in 2.5 mi WSW 10.4 mph - N/A   Overcast
6:15 PM 55.4 °F 53.6 °F 94% 30.29 in 4.0 mi West 11.5 mph - 0.01 in   Overcast
6:35 PM 55.4 °F 53.6 °F 94% 30.30 in 5.0 mi West 8.1 mph - 0.01 in   Overcast
6:55 PM 55.4 °F 53.6 °F 94% 30.30 in 8.0 mi WNW 10.4 mph - 0.01 in   Overcast
7:15 PM 55.4 °F 53.6 °F 94% 30.31 in 4.0 mi WNW 10.4 mph - N/A   Overcast
7:35 PM 53.6 °F 53.6 °F 100% 30.31 in 1.2 mi WNW 6.9 mph - N/A   Overcast
7:55 PM 53.6 °F 53.6 °F 100% 30.32 in 7.0 mi WNW 10.4 mph - 0.01 in   Overcast
8:15 PM 55.4 °F 53.6 °F 94% 30.32 in 10.0 mi WNW 9.2 mph - N/A   Overcast
8:35 PM 55.4 °F 53.6 °F 94% 30.33 in 10.0 mi WNW 6.9 mph - N/A   Overcast
8:55 PM 55.4 °F 53.6 °F 94% 30.33 in 10.0 mi NW 9.2 mph - N/A   Overcast
9:15 PM 53.6 °F 53.6 °F 100% 30.34 in 10.0 mi NW 10.4 mph - N/A   Overcast
9:35 PM 53.6 °F 53.6 °F 100% 30.34 in 10.0 mi WNW 9.2 mph - N/A   Overcast
10:15 PM 53.6 °F 51.8 °F 94% 30.35 in 2.5 mi West 10.4 mph - N/A   Overcast
10:35 PM 53.6 °F 53.6 °F 100% 30.35 in 8.0 mi NNW 6.9 mph - 0.01 in   Overcast
10:55 PM 53.6 °F 53.6 °F 100% 30.36 in 10.0 mi NNW 5.8 mph - 0.01 in   Overcast
11:15 PM 53.6 °F 53.6 °F 100% 30.36 in 10.0 mi NNW 5.8 mph - N/A   Overcast
11:35 PM 55.4 °F 53.6 °F 94% 30.36 in 10.0 mi NW 5.8 mph - N/A   Overcast
11:55 PM 53.6 °F 53.6 °F 100% 30.36 in 10.0 mi NNW 8.1 mph - N/A   Overcast